Location: Niedergestelen
(46.3129°N, 7.7822°E)
Time: 16:20:40
(UTC+00:00)

USA 238 - Pass Details

Date: 01 December 2020
Orbit: 996 x 1216 km, 63.4° (Epoch: 22 January)

Event Time Altitude Azimuth Distance (km) Brightness Sun altitude
Rises 18:51:27 0° 228° (SW) 3,724 7.2 -31.6°
Reaches altitude 10° 18:54:01 10° 232° (SW) 2,793 6.4 -32.0°
Maximum altitude 19:00:33 65° 314° (NW) 1,142 3.8 -33.2°
Enters shadow 19:00:42 65° 321° (NW) 1,144 3.8 -33.2°
